Klawock, AK

5:09 AM AKST on February 07, 2016 (GMT -0900)
Klawock

Weather History for PAKW - December, 2012

Change the Weather History Date:

Thursday, December 20, 2012

  Actual Average Record
Temperature  
Mean Temperature 32 °F -  
Max Temperature 35 °F 39 °F 52 °F (2005)
Min Temperature 28 °F 31 °F 16 °F (2008)
Degree Days  
Heating Degree Days 34    
Moisture  
Dew Point 25 °F    
Average Humidity 76    
Maximum Humidity 85    
Minimum Humidity 67    
Precipitation  
Precipitation 0.00 in - - ()
Sea Level Pressure  
Sea Level Pressure 29.54 in    
Wind  
Wind Speed 12 mph (NNE)    
Max Wind Speed 16 mph    
Max Gust Speed 23 mph    
Visibility 10 miles    
Events      
Averages and records for this station are not official NWS values.
T = Trace of Precipitation, MM = Missing Value Source: NWS Daily Summary

Daily Weather History Graph

Daily Weather History Graph

Search for Another Location

Airport or City:

Trip Planner

Search our weather history database for the weather conditions in past years. The results will help you decide how hot, cold, wet, or windy it might be!

Date:

Astronomy

Dec. 20, 2012 Rise Set
Actual Time 8:19 AM AKST 3:21 PM AKST
Civil Twilight 7:32 AM AKST 4:08 PM AKST
Nautical Twilight 6:43 AM AKST 4:56 PM AKST
Astronomical Twilight 5:58 AM AKST 5:42 PM AKST
Moon 11:35 AM AKST (12/20) 12:15 AM AKST (12/20)
Length of Visible Light 8h 35m
Length of Day
7h 02m
First Quarter, 56% of the Moon is Illuminated
Dec 20
First Quarter
Dec 28
Full
Jan 4
Last Quarter
Jan 11
New
Jan 18
First Quarter

Hourly Weather History & Observations

Time (AKST) Temp. Windchill Dew Point Humidity Pressure Visibility Wind Dir Wind Speed Gust Speed Precip Events Conditions
12:53 AM 34.0 °F 24.6 °F 30.0 °F 85% 29.39 in 10.0 mi NNE 13.8 mph 20.7 mph N/A   Mostly Cloudy
1:53 AM 34.0 °F 25.0 °F 30.0 °F 85% 29.42 in 10.0 mi NNE 12.7 mph 20.7 mph N/A   Overcast
3:53 AM 34.0 °F 25.0 °F 30.0 °F 85% 29.43 in 10.0 mi NNE 12.7 mph 17.3 mph N/A   Overcast
4:53 AM 34.0 °F 25.5 °F 28.9 °F 82% 29.45 in 10.0 mi NNE 11.5 mph - N/A   Overcast
5:53 AM 34.0 °F 25.5 °F 28.0 °F 79% 29.46 in 10.0 mi NE 11.5 mph 20.7 mph N/A   Mostly Cloudy
6:53 AM 33.1 °F 23.9 °F 28.0 °F 82% 29.47 in 10.0 mi NNE 12.7 mph - N/A   Scattered Clouds
7:53 AM 33.1 °F 23.4 °F 26.1 °F 75% 29.48 in 10.0 mi NNE 13.8 mph 20.7 mph N/A   Partly Cloudy
8:53 AM 33.1 °F 24.4 °F 26.1 °F 75% 29.50 in 10.0 mi NNE 11.5 mph 17.3 mph N/A   Mostly Cloudy
9:53 AM 33.1 °F 23.0 °F 25.0 °F 72% 29.51 in 10.0 mi NE 15.0 mph 21.9 mph N/A   Clear
10:53 AM 34.0 °F 24.6 °F 26.1 °F 73% 29.53 in 10.0 mi NNE 13.8 mph - N/A   Clear
11:53 AM 35.1 °F 26.9 °F 26.1 °F 70% 29.53 in 10.0 mi NNE 11.5 mph 19.6 mph N/A   Overcast
12:53 PM 35.1 °F 27.4 °F 25.0 °F 67% 29.54 in 10.0 mi NE 10.4 mph 19.6 mph N/A   Overcast
1:53 PM 34.0 °F 28.0 °F 24.1 °F 67% 29.55 in 10.0 mi Variable 6.9 mph 16.1 mph N/A   Scattered Clouds
2:53 PM 32.0 °F 22.1 °F 25.0 °F 75% 29.54 in 10.0 mi NNE 13.8 mph 20.7 mph N/A   Mostly Cloudy
3:53 PM 30.9 °F 22.8 °F 24.1 °F 76% 29.57 in 10.0 mi NNE 9.2 mph - N/A   Mostly Cloudy
4:53 PM 30.0 °F 23.2 °F 23.0 °F 75% 29.59 in 10.0 mi North 6.9 mph - N/A   Clear
5:53 PM 30.0 °F 20.0 °F 21.9 °F 72% 29.60 in 10.0 mi NNE 12.7 mph - N/A   Clear
6:53 PM 30.0 °F 19.5 °F 23.0 °F 75% 29.62 in 10.0 mi NNE 13.8 mph - N/A   Partly Cloudy
7:53 PM 28.9 °F 19.8 °F 21.9 °F 75% 29.64 in 10.0 mi NNE 10.4 mph - N/A   Scattered Clouds
8:53 PM 28.0 °F 17.5 °F 21.0 °F 75% 29.65 in 10.0 mi NNE 12.7 mph - N/A   Clear
9:53 PM 28.0 °F 16.5 °F 21.0 °F 75% 29.67 in 10.0 mi NNE 15.0 mph - N/A   Clear
10:53 PM 28.0 °F 16.1 °F 19.9 °F 72% 29.68 in 10.0 mi NNE 16.1 mph 23.0 mph N/A   Clear
11:53 PM 28.0 °F 17.5 °F 19.9 °F 72% 29.70 in 10.0 mi NNE 12.7 mph 18.4 mph N/A   Overcast